H1 CPF 2 NER 2023 10 7 9 280 01 glonass142 H2 2001801 9142 45358 2023 10 7 0 0 0 2023 10 10 23 45 0 900 1 1 0 0 0 1 H9 10 0 60224 0.00000 0 -20991908.757 4012991.262 -13884711.042 10 0 60224 900.00000 0 -19321348.870 3167601.725 -16314506.493 10 0 60224 1800.00000 0 -17486570.982 2043686.531 -18426576.221 10 0 60224 2700.00000 0 -15552095.754 640981.886 -20179795.599 10 0 60224 3600.00000 0 -13583167.843 -1028010.831 -21540048.937 10 0 60224 4500.00000 0 -11643097.802 -2938299.554 -22480895.642 10 0 60224 5400.00000 0 -9790705.256 -5053209.328 -22984084.036 10 0 60224 6300.00000 0 -8077970.702 -7325690.186 -23039903.064 10 0 60224 7200.00000 0 -6547994.169 -9700070.723 -22647365.476 10 0 60224 8100.00000 0 -5233345.633 -12114184.187 -21814219.448 10 0 60224 9000.00000 0 -4154875.228 -14501778.341 -20556789.024 10 0 60224 9900.00000 0 -3321031.744 -16795108.407 -18899647.067 10 0 60224 10800.00000 0 -2727716.243 -18927604.907 -16875127.685 10 0 60224 11700.00000 0 -2358675.055 -20836505.133 -14522688.129 10 0 60224 12600.00000 0 -2186413.615 -22465338.601 -11888133.104 10 0 60224 13500.00000 0 -2173590.793 -23766163.143 -9022717.079 10 0 60224 14400.00000 0 -2274833.150 -24701458.822 -5982142.443 10 0 60224 15300.00000 0 -2438891.112 -25245601.328 -2825473.467 10 0 60224 16200.00000 0 -2611044.813 -25385854.246 386012.513 10 0 60224 17100.00000 0 -2735657.142 -25122839.805 3590014.093 10 0 60224 18000.00000 0 -2758765.609 -24470469.604 6724411.763 10 0 60224 18900.00000 0 -2630603.337 -23455339.323 9728467.452 10 0 60224 19800.00000 0 -2307942.751 -22115613.728 12543994.704 10 0 60224 20700.00000 0 -1756163.231 -20499449.351 15116477.247 10 0 60224 21600.00000 0 -950955.774 -18663021.124 17396115.037 10 0 60224 22500.00000 0 120407.061 -16668235.424 19338778.447 10 0 60224 23400.00000 0 1458289.454 -14580224.563 20906853.138 10 0 60224 24300.00000 0 3050432.224 -12464726.452 22069960.328 10 0 60224 25200.00000 0 4872226.130 -10385457.534 22805539.519 10 0 60224 26100.00000 0 6887508.501 -8401587.174 23099283.126 10 0 60224 27000.00000 0 9049851.600 -6565417.336 22945415.103 10 0 60224 27900.00000 0 11304290.990 -4920362.858 22346808.221 10 0 60224 28800.00000 0 13589423.898 -3499315.422 21314937.408 10 0 60224 29700.00000 0 15839792.246 -2323458.556 19869669.325 10 0 60224 30600.00000 0 17988452.901 -1401582.602 18038891.156 10 0 60224 31500.00000 0 19969629.508 -729928.085 15857984.502 10 0 60224 32400.00000 0 21721336.288 -292564.060 13369153.156 10 0 60224 33300.00000 0 23187864.769 -62285.758 10620616.405 10 0 60224 34200.00000 0 24322029.377 -1994.066 7665682.330 10 0 60224 35100.00000 0 25087077.352 -66498.903 4561718.246 10 0 60224 36000.00000 0 25458182.002 -204670.378 1369037.756 10 0 60224 36900.00000 0 25423455.451 -361846.521 -1850273.915 10 0 60224 37800.00000 0 24984437.105 -482395.061 -5033573.098 10 0 60224 38700.00000 0 24156036.167 -512319.748 -8118885.025 10 0 60224 39600.00000 0 22965929.693 -401799.482 -11046120.383 10 0 60224 40500.00000 0 21453440.942 -107551.122 -13758256.223 10 0 60224 41400.00000 0 19667944.921 405085.837 -16202457.112 10 0 60224 42300.00000 0 17666868.327 1160432.641 -18331113.536 10 0 60224 43200.00000 0 15513368.245 2171196.963 -20102776.527 10 0 60224 44100.00000 0 13273787.605 3437696.178 -21482969.726 10 0 60224 45000.00000 0 11014994.706 4947612.221 -22444862.747 10 0 60224 45900.00000 0 8801718.751 6676289.334 -22969792.745 10 0 60224 46800.00000 0 6693993.180 8587562.902 -23047624.278 10 0 60224 47700.00000 0 4744813.720 10635085.009 -22676940.853 10 0 60224 48600.00000 0 2998108.596 12764091.392 -21865064.989 10 0 60224 49500.00000 0 1487104.901 14913535.870 -20627906.986 10 0 60224 50400.00000 0 233158.149 17018502.865 -18989645.947 10 0 60224 51300.00000 0 -754907.672 19012797.034 -16982249.848 10 0 60224 52200.00000 0 -1480923.852 20831601.686 -14644844.508 10 0 60224 53100.00000 0 -1960961.443 22414094.814 -12022944.279 10 0 60224 54000.00000 0 -2222396.073 23705913.496 -9167559.879 10 0 60224 54900.00000 0 -2302494.538 24661363.892 -6134201.159 10 0 60224 55800.00000 0 -2246584.537 25245284.833 -2981794.636 10 0 60224 56700.00000 0 -2105886.344 25434487.684 228462.817 10 0 60224 57600.00000 0 -1935099.117 25218712.996 3434291.600 10 0 60224 58500.00000 0 -1789844.619 24601064.804 6573535.083 10 0 60224 59400.00000 0 -1724076.766 23597905.261 9585360.043 10 0 60224 60300.00000 0 -1787566.505 22238214.851 12411428.797 10 0 60224 61200.00000 0 -2023568.062 20562445.505 14997020.782 10 0 60224 62100.00000 0 -2466764.741 18620914.895 17292082.581 10 0 60224 63000.00000 0 -3141580.539 16471808.880 19252186.975 10 0 60224 63900.00000 0 -4060928.546 14178875.034 20839383.474 10 0 60224 64800.00000 0 -5225448.860 11808902.558 22022924.939 10 0 60224 65700.00000 0 -6623268.547 9429092.366 22779857.226 10 0 60224 66600.00000 0 -8230294.652 7104425.456 23095461.201 10 0 60224 67500.00000 0 -10011029.377 4895137.495 22963539.089 10 0 60224 68400.00000 0 -11919875.080 2854403.194 22386539.688 10 0 60224 69300.00000 0 -13902876.513 1026325.480 21375519.739 10 0 60224 70200.00000 0 -15899829.627 -555687.962 19949941.482 10 0 60224 71100.00000 0 -17846670.809 -1870093.928 18137309.240 10 0 60224 72000.00000 0 -19678048.449 -2907880.387 15972650.780 10 0 60224 72900.00000 0 -21329970.605 -3672702.996 13497852.081 10 0 60224 73800.00000 0 -22742418.773 -4180485.686 10760856.992 10 0 60224 74700.00000 0 -23861818.439 -4458501.962 7814746.143 10 0 60224 75600.00000 0 -24643262.470 -4543975.413 4716712.062 10 0 60224 76500.00000 0 -25052393.160 -4482258.443 1526949.912 10 0 60224 77400.00000 0 -25066862.618 -4324666.302 -1692514.639 10 0 60224 78300.00000 0 -24677308.706 -4126058.513 -4879037.239 10 0 60224 79200.00000 0 -23887804.010 -3942270.920 -7970582.077 10 0 60224 80100.00000 0 -22715757.680 -3827508.246 -10906939.544 10 0 60224 81000.00000 0 -21191273.233 -3831809.022 -13630909.490 10 0 60224 81900.00000 0 -19355988.635 -3998691.844 -16089425.850 10 0 60224 82800.00000 0 -17261447.116 -4363084.200 -18234599.629 10 0 60224 83700.00000 0 -14967067.144 -4949623.040 -20024659.078 10 0 60224 84600.00000 0 -12537796.955 -5771400.333 -21424768.181 10 0 60224 85500.00000 0 -10041552.357 -6829207.726 -22407707.163 10 0 60225 0.00000 0 -7546545.643 -8111312.949 -22954401.778 10 0 60225 900.00000 0 -5118616.251 -9593778.796 -23054291.489 10 0 60225 1800.00000 0 -2818678.045 -11241309.866 -22705529.153 10 0 60225 2700.00000 0 -700385.103 -13008593.997 -21915009.830 10 0 60225 3600.00000 0 1191883.951 -14842080.427 -20698227.907 10 0 60225 4500.00000 0 2824641.289 -16682120.636 -19078966.282 10 0 60225 5400.00000 0 4176438.715 -18465381.832 -17088824.157 10 0 60225 6300.00000 0 5238503.779 -20127431.793 -14766593.178 10 0 60225 7200.00000 0 6014838.624 -21605386.552 -12157494.547 10 0 60225 8100.00000 0 6521779.662 -22840509.947 -9312292.465 10 0 60225 9000.00000 0 6787038.778 -23780656.172 -6286301.548 10 0 60225 9900.00000 0 6848268.528 -24382453.152 -3138307.980 10 0 60225 10800.00000 0 6751213.608 -24613135.613 70574.257 10 0 60225 11700.00000 0 6547528.076 -24451951.531 3278089.618 10 0 60225 12600.00000 0 6292351.565 -23891083.624 6422046.437 10 0 60225 13500.00000 0 6041747.520 -22936047.955 9441518.221 10 0 60225 14400.00000 0 5850111.929 -21605553.517 12278017.762 10 0 60225 15300.00000 0 5767661.875 -19930829.161 14876621.716 10 0 60225 16200.00000 0 5838109.577 -17954446.206 17187024.602 10 0 60225 17100.00000 0 6096619.555 -15728685.751 19164502.708 10 0 60225 18000.00000 0 6568134.556 -13313518.364 20770770.273 10 0 60225 18900.00000 0 7266140.426 -10774279.446 21974712.439 10 0 60225 19800.00000 0 8191921.932 -8179135.806 22752981.814 10 0 60225 20700.00000 0 9334341.221 -5596447.414 23090447.872 10 0 60225 21600.00000 0 10670149.117 -3092132.307 22980491.031 10 0 60225 22500.00000 0 12164817.571 -727142.516 22425135.821 10 0 60225 23400.00000 0 13773860.052 1444845.614 21435020.295 10 0 60225 24300.00000 0 15444586.518 3379432.033 20029201.578 10 0 60225 25200.00000 0 17118221.439 5043102.303 18234800.248 10 0 60225 26100.00000 0 18732297.949 6414379.242 16086489.159 10 0 60225 27000.00000 0 20223229.322 7484469.223 13625835.185 10 0 60225 27900.00000 0 21528950.961 8257376.232 10900505.229 10 0 60225 28800.00000 0 22591522.458 8749478.824 7963350.708 10 0 60225 29700.00000 0 23359580.300 8988587.645 4871387.359 10 0 60225 30600.00000 0 23790537.426 9012523.158 1684689.657 10 0 60225 31500.00000 0 23852435.904 8867273.617 -1534778.735 10 0 60225 32400.00000 0 23525373.291 8604811.502 -4724375.370 10 0 60225 33300.00000 0 22802440.998 8280661.400 -7822006.040 10 0 60225 34200.00000 0 21690133.536 7951323.234 -10767343.477 10 0 60225 35100.00000 0 20208210.040 7671661.187 -13503012.859 10 0 60225 36000.00000 0 18389012.723 7492370.248 -15975719.869 10 0 60225 36900.00000 0 16276270.207 7457629.146 -18137298.220 10 0 60225 37800.00000 0 13923435.521 7603040.362 -19945655.375 10 0 60225 38700.00000 0 11391628.400 7953945.638 -21365597.446 10 0 60225 39600.00000 0 8747268.205 8524189.192 -22369516.861 10 0 60225 40500.00000 0 6059496.715 9315381.644 -22937929.394 10 0 60225 41400.00000 0 3397498.707 10316696.233 -23059850.319 10 0 60225 42300.00000 0 827832.267 11505206.156 -22733002.757 10 0 60225 43200.00000 0 -1588119.955 12846748.896 -21963854.706 10 0 60225 44100.00000 0 -3796472.781 14297281.067 -20767484.591 10 0 60225 45000.00000 0 -5752837.809 15804666.552 -19167278.576 10 0 60225 45900.00000 0 -7423917.864 17310822.517 -17194466.089 10 0 60225 46800.00000 0 -8788631.636 18754132.816 -14887503.124 10 0 60225 47700.00000 0 -9838723.399 20072027.126 -12291315.850 10 0 60225 48600.00000 0 -10578834.445 21203617.260 -9456419.695 10 0 60225 49500.00000 0 -11026035.482 22092279.833 -6437931.492 10 0 60225 50400.00000 0 -11208841.832 22688076.803 -3294494.319 10 0 60225 51300.00000 0 -11165754.906 22949912.396 -87136.328 10 0 60225 52200.00000 0 -10943393.161 22847336.133 3121914.028 10 0 60225 53100.00000 0 -10594292.705 22361916.657 6270433.112 10 0 60225 54000.00000 0 -10174471.334 21488129.177 9297404.230 10 0 60225 54900.00000 0 -9740859.275 20233719.730 12144193.643 10 0 60225 55800.00000 0 -9348705.188 18619531.307 14755678.115 10 0 60225 56700.00000 0 -9049066.541 16678799.221 17081302.828 10 0 60225 57600.00000 0 -8886489.682 14455944.938 19076050.122 10 0 60225 58500.00000 0 -8896976.718 12004918.208 20701301.260 10 0 60225 59400.00000 0 -9106324.173 9387155.636 21925575.684 10 0 60225 60300.00000 0 -9528902.926 6669239.427 22725134.444 10 0 60225 61200.00000 0 -10166930.634 3920352.124 23084436.923 10 0 60225 62100.00000 0 -11010267.520 1209631.358 22996442.592 10 0 60225 63000.00000 0 -12036744.940 -1396467.330 22462752.080 10 0 60225 63900.00000 0 -13213014.112 -3836691.773 21493584.574 10 0 60225 64800.00000 0 -14495881.010 -6057295.334 20107591.328 10 0 60225 65700.00000 0 -15834073.133 -8014025.512 18331507.837 10 0 60225 66600.00000 0 -17170365.770 -9673717.022 16199650.146 10 0 60225 67500.00000 0 -18443980.020 -11015423.521 13753263.606 10 0 60225 68400.00000 0 -19593153.055 -12031040.915 11039735.312 10 0 60225 69300.00000 0 -20557773.214 -12725396.113 8111684.251 10 0 60225 70200.00000 0 -21281969.184 -13115797.402 5025945.905 10 0 60225 71100.00000 0 -21716543.768 -13231065.173 1842470.442 10 0 60225 72000.00000 0 -21821148.674 -13110083.809 -1376844.160 10 0 60225 72900.00000 0 -21566107.247 -12799936.000 -4569361.020 10 0 60225 73800.00000 0 -20933806.583 -12353698.783 -7672931.119 10 0 60225 74700.00000 0 -19919598.594 -11827995.240 -10627112.970 10 0 60225 75600.00000 0 -18532170.329 -11280406.492 -13374360.313 10 0 60225 76500.00000 0 -16793366.474 -10766854.708 -15861153.536 10 0 60225 77400.00000 0 -14737470.333 -10339069.203 -18039051.644 10 0 60225 78300.00000 0 -12409972.653 -10042244.090 -19865643.432 10 0 60225 79200.00000 0 -9865879.453 -9912987.689 -21305378.711 10 0 60225 80100.00000 0 -7167629.576 -9977651.248 -22330263.049 10 0 60225 81000.00000 0 -4382709.070 -10251108.243 -22920402.488 10 0 60225 81900.00000 0 -1581062.117 -10736036.077 -23064387.828 10 0 60225 82800.00000 0 1167593.342 -11422730.590 -22759511.397 10 0 60225 83700.00000 0 3796433.461 -12289461.009 -22011812.597 10 0 60225 84600.00000 0 6244068.981 -13303350.071 -20835951.919 10 0 60225 85500.00000 0 8456853.070 -14421741.752 -19254916.462 10 0 60226 0.00000 0 10390861.163 -15593998.433 -17299563.452 10 0 60226 900.00000 0 12013462.506 -16763651.918 -15008010.050 10 0 60226 1800.00000 0 13304416.937 -17870815.709 -12424884.543 10 0 60226 2700.00000 0 14256456.401 -18854758.676 -9600450.476 10 0 60226 3600.00000 0 14875326.345 -19656529.931 -6589623.719 10 0 60226 4500.00000 0 15179288.475 -20221524.877 -3450901.067 10 0 60226 5400.00000 0 15198107.715 -20501884.304 -245221.732 10 0 60226 6300.00000 0 14971567.862 -20458625.738 2965215.889 10 0 60226 7200.00000 0 14547580.071 -20063417.579 6118158.948 10 0 60226 8100.00000 0 13979965.042 -19299921.810 9152503.012 10 0 60226 9000.00000 0 13326003.176 -18164649.116 12009469.957 10 0 60226 9900.00000 0 12643856.263 -16667290.775 14633738.435 10 0 60226 10800.00000 0 11989969.256 -14830513.404 16974505.704 10 0 60226 11700.00000 0 11416561.069 -12689224.872 18986461.184 10 0 60226 12600.00000 0 10969309.346 -10289341.476 20630653.844 10 0 60226 13500.00000 0 10685325.797 -7686106.842 21875237.761 10 0 60226 14400.00000 0 10591506.439 -4942031.225 22696082.436 10 0 60226 15300.00000 0 10703325.549 -2124535.359 23077236.890 10 0 60226 16200.00000 0 11024123.742 696605.079 23011239.106 10 0 60226 17100.00000 0 11544920.294 3451910.181 22499265.035 10 0 60226 18000.00000 0 12244758.227 6074833.485 21551114.020 10 0 60226 18900.00000 0 13091568.728 8504278.810 20185030.288 10 0 60226 19800.00000 0 14043519.946 10686893.052 18427362.935 10 0 60226 20700.00000 0 15050795.009 12579040.616 16312069.722 10 0 60226 21600.00000 0 16057725.954 14148377.890 13880072.860 10 0 60226 22500.00000 0 17005195.040 15374962.355 11178477.860 10 0 60226 23400.00000 0 17833203.157 16251849.939 8259669.347 10 0 60226 24300.00000 0 18483497.440 16785155.386 5180300.453 10 0 60226 25200.00000 0 18902147.048 16993572.846 2000194.799 10 0 60226 26100.00000 0 19041957.613 16907376.642 -1218817.660 10 0 60226 27000.00000 0 18864621.182 16566944.301 -4414108.013 10 0 60226 27900.00000 0 18342509.241 16020864.387 -7523474.821 10 0 60226 28800.00000 0 17460031.301 15323709.592 -10486364.698 10 0 60226 29700.00000 0 16214499.873 14533570.012 -13245062.134 10 0 60226 30600.00000 0 14616463.571 13709451.902 -15745824.248 10 0 60226 31500.00000 0 12689492.818 12908653.082 -17939937.188 10 0 60226 32400.00000 0 10469425.944 12184227.077 -19784672.755 10 0 60226 33300.00000 0 8003106.430 11582644.186 -21244125.966 10 0 60226 34200.00000 0 5346663.726 11141749.112 -22289916.881 10 0 60226 35100.00000 0 2563409.282 10889101.904 -22901742.988 10 0 60226 36000.00000 0 -278564.368 10840772.400 -23067771.580 10 0 60226 36900.00000 0 -3108981.296 11000638.954 -22784864.880 10 0 60226 37800.00000 0 -5858068.355 11360220.574 -22058634.038 10 0 60226 38700.00000 0 -8459218.155 11899048.963 -20903321.539 10 0 60226 39600.00000 0 -10851518.262 12585564.032 -19341514.892 10 0 60226 40500.00000 0 -12982041.970 13378494.298 -17403697.757 10 0 60226 41400.00000 0 -14807806.169 14228663.176 -15127647.749 10 0 60226 42300.00000 0 -16297315.934 15081144.225 -12557693.180 10 0 60226 43200.00000 0 -17431632.950 15877673.842 -9743843.619 10 0 60226 44100.00000 0 -18204924.959 16559219.113 -6740811.661 10 0 60226 45000.00000 0 -18624475.163 17068592.167 -3606945.342 10 0 60226 45900.00000 0 -18710153.257 17353000.597 -403092.337 10 0 60226 46800.00000 0 -18493372.207 17366426.384 2808581.685 10 0 60226 47700.00000 0 -18015576.348 17071733.155 5965797.388 10 0 60226 48600.00000 0 -17326325.822 16442413.246 9007365.370 10 0 60226 49500.00000 0 -16481058.939 15463901.240 11874365.894 10 0 60226 50400.00000 0 -15538627.206 14134398.931 14511282.240 10 0 60226 51300.00000 0 -14558706.822 12465177.079 16867066.422 10 0 60226 52200.00000 0 -13599195.186 10480341.022 18896117.483 10 0 60226 53100.00000 0 -12713701.188 8216069.381 20559154.451 10 0 60226 54000.00000 0 -11949233.822 5719356.686 21823968.141 10 0 60226 54900.00000 0 -11344185.200 3046311.019 22666038.311 10 0 60226 55800.00000 0 -10926691.705 260075.902 23069005.050 10 0 60226 56700.00000 0 -10713441.354 -2571539.030 23024985.886 10 0 60226 57600.00000 0 -10708977.066 -5378622.200 22534732.670 10 0 60226 58500.00000 0 -10905525.127 -8091814.555 21607624.995 10 0 60226 59400.00000 0 -11283356.520 -10644945.987 20261499.642 10 0 60226 60300.00000 0 -11811666.805 -12977545.744 18522318.379 10 0 60226 61200.00000 0 -12449938.680 -15037123.611 16423679.247 10 0 60226 62100.00000 0 -13149731.100 -16781127.674 14006179.400 10 0 60226 63000.00000 0 -13856820.793 -18178497.387 11316640.426 10 0 60226 63900.00000 0 -14513606.755 -19210747.023 8407209.894 10 0 60226 64800.00000 0 -15061676.796 -19872533.897 5334355.608 10 0 60226 65700.00000 0 -15444427.753 -20171687.111 2157771.461 10 0 60226 66600.00000 0 -15609628.088 -20128695.188 -1060783.944 10 0 60226 67500.00000 0 -15511813.501 -19775673.885 -4258693.079 10 0 60226 68400.00000 0 -15114412.798 -19154857.625 -7373705.537 10 0 60226 69300.00000 0 -14391512.357 -18316678.428 -10345159.461 10 0 60226 70200.00000 0 -13329182.757 -17317514.011 -13115173.455 10 0 60226 71100.00000 0 -11926309.616 -16217200.934 -15629784.559 10 0 60226 72000.00000 0 -10194891.896 -15076418.807 -17840009.007 10 0 60226 72900.00000 0 -8159793.571 -13954057.057 -19702804.184 10 0 60226 73800.00000 0 -5857957.895 -12904676.350 -21181912.430 10 0 60226 74700.00000 0 -3337116.391 -11976172.534 -22248569.858 10 0 60226 75600.00000 0 -654046.053 -11207742.122 -22882066.357 10 0 60226 76500.00000 0 2127552.691 -10628235.171 -23070146.049 10 0 60226 77400.00000 0 4939468.750 -10254964.775 -22809240.781 10 0 60226 78300.00000 0 7711583.370 -10093022.733 -22104532.638 10 0 60226 79200.00000 0 10374554.964 -10135129.392 -20969844.790 10 0 60226 80100.00000 0 12862474.142 -10362022.961 -19427363.425 10 0 60226 81000.00000 0 15115378.779 -10743370.700 -17507196.709 10 0 60226 81900.00000 0 17081524.978 -11239162.418 -15246779.893 10 0 60226 82800.00000 0 18719320.187 -11801526.356 -12690138.665 10 0 60226 83700.00000 0 19998839.012 -12376889.831 -9887025.526 10 0 60226 84600.00000 0 20902859.932 -12908392.594 -6891946.444 10 0 60226 85500.00000 0 21427381.189 -13338450.365 -3763097.167 10 0 60227 0.00000 0 21581596.106 -13611359.829 -561230.518 10 0 60227 900.00000 0 21387330.688 -13675835.029 2651524.712 10 0 60227 1800.00000 0 20877968.691 -13487367.689 5812865.825 10 0 60227 2700.00000 0 20096911.076 -13010312.518 8861521.577 10 0 60227 3600.00000 0 19095635.406 -12219609.331 11738433.369 10 0 60227 4500.00000 0 17931437.636 -11102069.813 14387891.431 10 0 60227 5400.00000 0 16664951.390 -9657174.800 16758604.371 10 0 60227 6300.00000 0 15357548.741 -7897348.389 18804682.237 10 0 60227 7200.00000 0 14068731.002 -5847696.885 20486515.042 10 0 60227 8100.00000 0 12853618.071 -3545222.613 21771530.849 10 0 60227 9000.00000 0 11760640.483 -1037544.144 22634819.790 10 0 60227 9900.00000 0 10829529.754 1618825.315 23059612.797 10 0 60227 10800.00000 0 10089690.129 4360571.618 23037606.387 10 0 60227 11700.00000 0 9559019.166 7119960.476 22569127.458 10 0 60227 12600.00000 0 9243226.076 9827408.513 21663134.726 10 0 60227 13500.00000 0 9135676.339 12414139.713 20337056.163 10 0 60227 14400.00000 0 9217769.410 14814818.661 18616464.611 10 0 60227 15300.00000 0 9459834.295 16970052.338 16534596.604 10 0 60227 16200.00000 0 9822506.193 18828657.262 14131722.279 10 0 60227 17100.00000 0 10258527.144 20349597.882 11454377.172 10 0 60227 18000.00000 0 10714895.571 21503515.269 8554469.515 10 0 60227 18900.00000 0 11135274.520 22273781.810 5488279.373 10 0 60227 19800.00000 0 11462556.979 22657037.134 2315368.401 10 0 60227 20700.00000 0 11641479.442 22663182.143 -902578.726 10 0 60227 21600.00000 0 11621172.303 22314830.808 -4102958.429 10 0 60227 22500.00000 0 11357537.849 21646242.467 -7223473.822 10 0 60227 23400.00000 0 10815353.593 20701779.509 -10203356.939 10 0 60227 24300.00000 0 9970010.093 19533955.714 -12984562.658 10 0 60227 25200.00000 0 8808807.878 18201158.095 -15512909.897 10 0 60227 26100.00000 0 7331756.836 16765139.101 -17739146.703 10 0 60227 27000.00000 0 5551842.645 15288385.803 -19619917.567 10 0 60227 27900.00000 0 3494747.594 13831477.829 -21118613.480 10 0 60227 28800.00000 0 1198036.382 12450546.115 -22206087.761 10 0 60227 29700.00000 0 -1290159.772 11194939.943 -22861223.656 10 0 60227 30600.00000 0 -3912906.169 10105200.578 -23071342.850 10 0 60227 31500.00000 0 -6606601.389 9211426.559 -22832447.274 10 0 60227 32400.00000 0 -9303398.743 8532098.733 -22149290.050 10 0 60227 33300.00000 0 -11933811.492 8073413.495 -21035274.742 10 0 60227 34200.00000 0 -14429393.344 7829151.044 -19512185.479 10 0 60227 35100.00000 0 -16725382.739 7781082.739 -17609753.766 10 0 60227 36000.00000 0 -18763201.088 7899898.891 -15365070.920 10 0 60227 36900.00000 0 -20492701.408 8146616.362 -12821858.112 10 0 60227 37800.00000 0 -21874074.346 8474405.202 -10029608.629 10 0 60227 38700.00000 0 -22879333.136 8830755.982 -7042619.495 10 0 60227 39600.00000 0 -23493316.689 9159895.298 -3918931.735 10 0 60227 40500.00000 0 -23714170.332 9405346.633 -719200.239 10 0 60227 41400.00000 0 -23553285.684 9512527.895 2494484.483 10 0 60227 42300.00000 0 -23034703.692 9431275.632 5659799.542 10 0 60227 43200.00000 0 -22194007.332 9118189.280 8715394.486 10 0 60227 44100.00000 0 -21076751.629 8538696.621 11602074.506 10 0 60227 45000.00000 0 -19736497.671 7668753.491 14263939.407 10 0 60227 45900.00000 0 -18232533.567 6496106.271 16649456.947 10 0 60227 46800.00000 0 -16627377.818 5021063.967 18712450.582 10 0 60227 47700.00000 0 -14984169.313 3256747.116 20412983.509 10 0 60227 48600.00000 0 -13364052.370 1228802.385 21718122.955 10 0 60227 49500.00000 0 -11823665.127 -1025406.368 22602571.017 10 0 60227 50400.00000 0 -10412835.068 -3458098.240 23049150.675 10 0 60227 51300.00000 0 -9172576.761 -6012814.310 23049138.252 10 0 60227 52200.00000 0 -8133474.343 -8626525.195 22602436.101 10 0 60227 53100.00000 0 -7314515.544 -11232021.593 21717582.049 10 0 60227 54000.00000 0 -6722425.459 -13760490.478 20411594.826 10 0 60227 54900.00000 0 -6351527.788 -16144171.698 18709657.508 10 0 60227 55800.00000 0 -6184139.554 -18318985.900 16644643.862 10 0 60227 56700.00000 0 -6191483.146 -20227025.405 14256495.363 10 0 60227 57600.00000 0 -6335077.932 -21818804.724 11591459.501 10 0 60227 58500.00000 0 -6568553.433 -23055176.745 8701202.873 10 0 60227 59400.00000 0 -6839808.025 -23908834.113 5641815.256 10 0 60227 60300.00000 0 -7093422.157 -24365332.173 2472723.322 10 0 60227 61200.00000 0 -7273223.797 -24423589.726 -744465.074 10 0 60227 62100.00000 0 -7324896.880 -24095845.674 -3947163.302 10 0 60227 63000.00000 0 -7198521.210 -23407072.666 -7073031.089 10 0 60227 63900.00000 0 -6850934.764 -22393871.969 -10061197.496 10 0 60227 64800.00000 0 -6247816.671 -21102895.988 -12853456.816 10 0 60227 65700.00000 0 -5365400.817 -19588865.056 -15395412.920 10 0 60227 66600.00000 0 -4191745.769 -17912262.593 -17637548.586 10 0 60227 67500.00000 0 -2727505.619 -16136806.326 -19536198.079 10 0 60227 68400.00000 0 -986167.655 -14326802.796 -21054403.355 10 0 60227 69300.00000 0 1006254.417 -12544497.112 -22162636.806 10 0 60227 70200.00000 0 3212059.840 -10847529.887 -22839376.408 10 0 60227 71100.00000 0 5583198.294 -9286608.334 -23071522.240 10 0 60227 72000.00000 0 8063049.920 -7903489.190 -22854646.624 10 0 60227 72900.00000 0 10588573.744 -6729357.548 -22193073.522 10 0 60227 73800.00000 0 13092734.855 -5783668.635 -21099786.227 10 0 60227 74700.00000 0 15507109.091 -5073499.907 -19596165.703 10 0 60227 75600.00000 0 17764556.627 -4593439.018 -17711565.260 10 0 60227 76500.00000 0 19801853.105 -4326010.650 -15482730.336 10 0 60227 77400.00000 0 21562168.794 -4242622.388 -12953075.211 10 0 60227 78300.00000 0 22997292.792 -4304988.021 -10171831.175 10 0 60227 79200.00000 0 24069510.097 -4466966.614 -7193083.156 10 0 60227 80100.00000 0 24753053.979 -4676738.334 -4074713.997 10 0 60227 81000.00000 0 25035074.049 -4879223.991 -877277.289 10 0 60227 81900.00000 0 24916080.763 -5018645.260 2337179.041 10 0 60227 82800.00000 0 24409849.052 -5041116.870 5506315.278 10 0 60227 83700.00000 0 23542786.400 -4897161.003 8568705.209 10 0 60227 84600.00000 0 22352792.964 -4544037.699 11465020.937 10 0 60227 85500.00000 0 20887662.352 -3947793.056 14139174.570 99